Powrót do katalogu

COSMOS 2491 DEB

AktywnyPO
NORAD 45127·DEBRIS·🇷🇺 Russia

Wystrzelony Dec 25, 2013 z Plesetsk Cosmodrome

Loading…

Następne Przeloty (najbliższe 24 godziny)

TLE

Starzejące sięSource: Space-Track

Epoka: Sep 10, 2026, 05:47 UTC

1 45127U 13076Z   26253.24125205  .00001428  00000-0  78123-2 0  9993
2 45127  82.4522  67.9470 0068390 348.6273  11.3269 12.62703571303985

Śledź COSMOS 2491 DEB w czasie rzeczywistym z AllMySat

Download on the App Store